sat.trackr.live / text

‹ back to catalog

ONEWEB-0194

NORAD 48237 · 2021-031AD

PAYLOAD ACTIVE UNKNOWN

§ Identity

Operator
Country
UK
Launch date
2021-04-25
Launch site
VOSTO
Launch vehicle
Mass (kg)
RCS (m²)

Purposes: comms

External: N2YO · Heavens-Above · Gunter

§ Orbital elements

Epoch: 2026-09-19T23:21:31.257216Z

Period
109.55 min
Inclination
87.8896°
Eccentricity
0.0002043
Mean motion
13.14504650 rev/d
Perigee alt
1,204.2 km
Apogee alt
1,207.3 km
Semi-major
7,583.9 km
B*
-4.3893e-4
RAAN
270.8032°
Arg perigee
85.8429°
Mean anomaly
274.2934°
Rev number
26,081

§ Raw data

ONEWEB-01941 48237U 21031AD  26262.97327844 -.00000150  00000+0 -43893-3 0  99902 48237  87.8896 270.8032 0002043  85.8429 274.2934 13.14504650260816

JSON: /api/v1/satellites/48237 · /tle

For live sub-satellite position, see the globe view (requires WebGL).

§ Visibility from observer

Set your observer location to see the next 7 days of passes ≥ 10°. The values pass through the URL so the page stays shareable.

No JS? Fill the form by hand. The geolocation button needs JavaScript.